Weather History for NW Arkansas Airport, AR

Change the Weather History Date:

Wednesday, June 26, 2013

  Actual Average Record
Temperature  
Mean Temperature 83 °F -  
Max Temperature 93 °F - - ()
Min Temperature 73 °F - - ()
Cooling Degree Days 18    
Growing Degree Days 33 (Base 50)    
Moisture  
Dew Point 71 °F    
Average Humidity 70    
Maximum Humidity 90    
Minimum Humidity 50    
Precipitation  
Precipitation 0.00 in - - ()
Sea Level Pressure  
Sea Level Pressure 29.86 in    
Wind  
Wind Speed 9 mph (SSW)    
Max Wind Speed 18 mph    
Max Gust Speed 24 mph    
Visibility 10 miles    
Events Rain    
T = Trace of Precipitation, MM = Missing Value Source: NWS Daily Summary

Daily Weather History Graph

Daily Weather History Graph

Search for Another Location

Airport:

Trip Planner

Search our weather history database for the weather conditions in past years. The results will help you decide how hot, cold, wet, or windy it might be!

Date:

Astronomy

Jun. 26, 2013 Rise Set
Actual Time 6:01 AM CDT 8:38 PM CDT
Civil Twilight 5:31 AM CDT 9:09 PM CDT
Nautical Twilight 4:53 AM CDT 9:46 PM CDT
Astronomical Twilight 4:11 AM CDT 10:29 PM CDT
Moon 11:10 PM CDT (6/26) 9:47 AM CDT (6/26)
Length of Visible Light 15h 38m
Length of Day
14h 37m
Waning Gibbous, 85% of the Moon is Illuminated
Jun 26
Waning Gibbous
Jun 29
Last Quarter
Jul 8
New
Jul 15
First Quarter
Jul 22
Full

Hourly Weather History & Observations

Time (CDT) Temp. Heat Index Dew Point Humidity Pressure Visibility Wind Dir Wind Speed Gust Speed Precip Events Conditions
12:53 AM 75.0 °F - 68.0 °F 79% 29.84 in 10.0 mi South 9.2 mph - N/A   Clear
1:53 AM 75.0 °F - 68.0 °F 79% 29.84 in 10.0 mi South 6.9 mph - N/A   Clear
2:53 AM 73.9 °F - 69.1 °F 85% 29.83 in 10.0 mi SSW 6.9 mph - N/A   Clear
3:53 AM 75.9 °F - 69.1 °F 79% 29.82 in 10.0 mi South 12.7 mph - N/A   Clear
4:53 AM 75.0 °F - 69.1 °F 82% 29.82 in 10.0 mi SSW 8.1 mph - N/A   Clear
5:53 AM 75.9 °F - 69.1 °F 79% 29.83 in 10.0 mi South 10.4 mph - N/A   Clear
6:53 AM 77.0 °F - 68.0 °F 74% 29.85 in 10.0 mi SSW 11.5 mph - N/A   Clear
7:53 AM 78.1 °F - 68.0 °F 71% 29.86 in 10.0 mi SSW 12.7 mph 20.7 mph N/A   Clear
8:53 AM 81.0 °F 84.1 °F 69.1 °F 67% 29.88 in 10.0 mi SW 16.1 mph 24.2 mph N/A   Clear
9:53 AM 82.9 °F 87.0 °F 70.0 °F 65% 29.87 in 10.0 mi SSW 18.4 mph 24.2 mph N/A   Clear
10:53 AM 87.1 °F 92.0 °F 70.0 °F 57% 29.88 in 10.0 mi SW 13.8 mph 20.7 mph N/A   Clear
11:53 AM 88.0 °F 92.9 °F 70.0 °F 55% 29.88 in 10.0 mi SW 15.0 mph - N/A   Clear
12:53 PM 90.0 °F 96.9 °F 72.0 °F 55% 29.88 in 10.0 mi SSW 15.0 mph 21.9 mph N/A   Clear
1:53 PM 91.0 °F 97.6 °F 71.1 °F 52% 29.88 in 10.0 mi SW 11.5 mph - N/A   Clear
2:53 PM 91.0 °F 97.6 °F 71.1 °F 52% 29.88 in 10.0 mi SW 9.2 mph - N/A   Clear
3:53 PM 93.0 °F 100.7 °F 72.0 °F 50% 29.86 in 10.0 mi SSW 10.4 mph 17.3 mph N/A   Clear
4:53 PM 91.0 °F 98.2 °F 72.0 °F 53% 29.85 in 10.0 mi SW 10.4 mph - N/A   Clear
5:53 PM 89.1 °F 95.0 °F 71.1 °F 55% 29.85 in 10.0 mi SW 8.1 mph - N/A   Partly Cloudy
6:53 PM 84.9 °F 92.1 °F 73.9 °F 69% 29.85 in 10.0 mi SW 6.9 mph - 0.00 in Rain Light Rain
7:53 PM 87.1 °F 95.4 °F 73.9 °F 65% 29.86 in 10.0 mi Calm Calm - 0.00 in   Scattered Clouds
8:53 PM 82.9 °F 90.2 °F 75.0 °F 77% 29.87 in 10.0 mi Calm Calm - N/A   Clear
9:53 PM 79.0 °F - 75.0 °F 88% 29.90 in 10.0 mi Calm Calm - N/A   Clear
10:53 PM 77.0 °F - 73.9 °F 90% 29.91 in 10.0 mi Calm Calm - N/A   Clear
11:53 PM 77.0 °F - 73.9 °F 90% 29.91 in 9.0 mi Calm Calm - N/A   Clear